Roswell, NM

8:21 AM MDT on April 30, 2017 (GMT -0600)
Roswell Industrial

Weather History for KROW - July, 2013

Change the Weather History Date:

Friday, July 5, 2013

  Actual Average Record
Temperature  
Mean Temperature 82 °F 81 °F  
Max Temperature 98 °F 94 °F 108 °F (2016)
Min Temperature 65 °F 67 °F 53 °F (1905)
Degree Days  
Heating Degree Days 0 0  
Month to date heating degree days 0 0  
Since 1 June heating degree days 0 1  
Since 1 July heating degree days 0 0  
Cooling Degree Days 17 16  
Month to date cooling degree days 57 78  
Year to date cooling degree days 930 700  
Since 1 June cooling degree days 607 475  
Growing Degree Days 31 (Base 50)    
Moisture  
Dew Point 52 °F    
Average Humidity 43    
Maximum Humidity 68    
Minimum Humidity 18    
Precipitation  
Precipitation T in 0.07 in 2.69 in (1968)
Month to date precipitation 1.04 0.38  
Year to date precipitation 2.63 5.28  
Sea Level Pressure  
Sea Level Pressure 29.73 in    
Wind  
Wind Speed 11 mph (SSE)    
Max Wind Speed 28 mph    
Max Gust Speed 38 mph    
Visibility 10 miles    
Events      
T = Trace of Precipitation, MM = Missing Value Source: NWS Daily Summary

Daily Weather History Graph

Daily Weather History Graph

Search for Another Location

Airport or City:

Trip Planner

Search our weather history database for the weather conditions in past years. The results will help you decide how hot, cold, wet, or windy it might be!

Date:

Astronomy

Jul. 05, 2013 Rise Set
Actual Time 5:54 AM MDT 8:11 PM MDT
Civil Twilight 5:25 AM MDT 8:39 PM MDT
Nautical Twilight 4:50 AM MDT 9:14 PM MDT
Astronomical Twilight 4:12 AM MDT 9:52 PM MDT
Moon 3:52 AM MDT (7/5) 6:10 PM MDT (7/5)
Length of Visible Light 15h 13m
Length of Day
14h 16m
Waning Crescent, 6% of the Moon is Illuminated
Jul 5
Waning Crescent
Jul 8
New
Jul 15
First Quarter
Jul 22
Full
Jul 29
Last Quarter

Hourly Weather History & Observations

Time (MDT) Temp. Heat Index Dew Point Humidity Pressure Visibility Wind Dir Wind Speed Gust Speed Precip Events Conditions
12:51 AM 72.0 °F - 53.1 °F 51% 29.78 in 10.0 mi SSW 6.9 mph - N/A   Clear
1:51 AM 70.0 °F - 54.0 °F 57% 29.77 in 10.0 mi SSW 5.8 mph - N/A   Clear
2:51 AM 69.1 °F - 55.0 °F 61% 29.77 in 10.0 mi Calm Calm - N/A   Clear
3:51 AM 68.0 °F - 55.9 °F 65% 29.77 in 10.0 mi ENE 3.5 mph - N/A   Clear
4:51 AM 66.0 °F - 55.9 °F 70% 29.76 in 10.0 mi SE 6.9 mph - N/A   Clear
5:51 AM 66.9 °F - 54.0 °F 63% 29.77 in 10.0 mi ESE 4.6 mph - N/A   Clear
6:51 AM 66.0 °F - 54.0 °F 65% 29.78 in 10.0 mi SSE 3.5 mph - N/A   Clear
7:51 AM 72.0 °F - 54.0 °F 53% 29.79 in 10.0 mi SSE 6.9 mph - N/A   Clear
8:51 AM 75.0 °F - 53.1 °F 46% 29.80 in 10.0 mi South 13.8 mph - N/A   Clear
9:51 AM 79.0 °F - 53.1 °F 40% 29.78 in 10.0 mi South 16.1 mph - N/A   Clear
10:51 AM 82.9 °F - 52.0 °F 34% 29.77 in 10.0 mi SSE 13.8 mph - N/A   Clear
11:51 AM 87.1 °F - 52.0 °F 30% 29.75 in 10.0 mi SSE 13.8 mph - N/A   Clear
12:51 PM 91.9 °F - 50.0 °F 24% 29.73 in 10.0 mi SSE 15.0 mph 23.0 mph N/A   Clear
1:51 PM 93.0 °F - 48.0 °F 21% 29.70 in 10.0 mi SSE 16.1 mph 26.5 mph N/A   Clear
2:51 PM 95.0 °F - 48.0 °F 20% 29.69 in 10.0 mi SSE 16.1 mph - N/A   Clear
3:51 PM 97.0 °F - 48.0 °F 19% 29.65 in 10.0 mi South 17.3 mph 25.3 mph N/A   Clear
4:51 PM 98.1 °F - 48.9 °F 19% 29.62 in 10.0 mi SSW 16.1 mph 19.6 mph N/A   Clear
5:51 PM 97.0 °F - 48.0 °F 19% 29.60 in 10.0 mi SSE 12.7 mph - N/A   Clear
6:51 PM 95.0 °F - 48.0 °F 20% 29.62 in 10.0 mi South 13.8 mph - N/A   Clear
7:51 PM 91.0 °F - 50.0 °F 24% 29.63 in 10.0 mi SSE 10.4 mph - N/A   Clear
8:51 PM 89.1 °F - 51.1 °F 27% 29.64 in 10.0 mi South 10.4 mph - N/A   Clear
9:51 PM 87.1 °F - 52.0 °F 30% 29.69 in 10.0 mi NW 15.0 mph 20.7 mph N/A   Scattered Clouds
10:09 PM 89.6 °F - 48.2 °F 24% 29.94 in 10.0 mi South 15.0 mph 38.0 mph N/A   Mostly Cloudy
10:51 PM 84.9 °F 83.6 °F 55.0 °F 36% 29.74 in 10.0 mi North 4.6 mph - 0.00 in   Overcast
11:51 PM 84.9 °F 83.3 °F 54.0 °F 34% 29.74 in 10.0 mi SSE 11.5 mph - N/A   Clear